Regional Weather Roundup
Issued by NWS

Home | Current Version | Previous Version | Graphics & Text | Print | Product List | Glossary On
Versions: 1 2 3 4 5 6 7 8 9 10 11 12 13 14 15 16 17 18 19 20 21 22 23 24 25 26 27 28 29 30 31 32 33 34 35 36 37 38 39 40 41 42 43 44 45 46 47 48 49 50
000
ASUS45 KBOU 040307
RWRCO

WEATHER ROUNDUP FOR COLORADO
NATIONAL WEATHER SERVICE DENVER/BOULDER CO
900 PM MDT SUN MAY 03 2015

NOTE: "FAIR" INDICATES FEW OR NO CLOUDS BELOW 12000 FEET WITH NO
SIGNIFICANT WEATHER AND/OR OBSTRUCTIONS TO VISIBILITY.

COZ001>005-013-030-031-040400-
...NORTHWEST COLORADO...

CITY           SKY/WX    TMP DP  RH WIND       PRES   REMARKS
CRAIG          CLOUDY    51  39  63 S6        30.04R
HAYDEN         CLOUDY    52  36  54 SE10      30.05R
MEEKER         LGT RAIN  50  44  80 NW8       30.10R
MOUNT WERNER   NOT AVBL
STEAMBOAT SPGS CLOUDY    52  37  56 E9        30.07R
WALDEN         CLOUDY    43  32  65 NW8       30.13S
$$

COZ006>008-011-040400-
...WEST CENTRAL VALLEYS...

CITY           SKY/WX    TMP DP  RH WIND       PRES   REMARKS
GRAND JUNCTION CLOUDY    63  39  41 SE10      29.97R
MONTROSE       CLOUDY    56  40  55 S9        30.06R
EAGLE          CLOUDY    48  45  87 NE6       30.11R
RIFLE          CLOUDY    60  38  43 NW7       30.02R
DELTA          CLOUDY    58  47  64 N16       30.02S
NUCLA          CLOUDY    59  36  41 NE9       30.05R
$$

COZ017>023-064>068-040400-
...SOUTHWEST COLORADO...

CITY           SKY/WX    TMP DP  RH WIND       PRES   REMARKS
DURANGO        MOCLDY    53  40  61 NE14      30.08R
CORTEZ         PTCLDY    58  38  47 S12       30.02R
PAGOSA SPRINGS MOCLDY    46  42  86 CALM      30.14S
TELLURIDE      CLOUDY    42  38  84 CALM      30.19S
WOLF CREEK PAS NOT AVBL
$$

COZ009-010-012-014-032>034-037-058>063-040400-
...CENTRAL COLORADO...

CITY           SKY/WX    TMP DP  RH WIND       PRES   REMARKS
ASPEN          CLOUDY    44  38  79 S6        30.11R
BUENA VISTA    NOT AVBL
COPPER MTN       N/A     36  32  87 SE5       30.31S
BERTHOUD PASS  HAZE      30  21  69 E21G26    30.33S VSB<1/4 WCI  17
COTTONWOOD PAS CLOUDY    43  32  65 W9        30.23R
GUNNISON       CLOUDY    46  36  66 SW18      30.20R
KREMMLING      CLOUDY    50  34  53 SW17      30.12R
LEADVILLE      CLOUDY    37  32  82 CALM      30.21R
MONARCH PASS   MOCLDY    34  28  80 E7        30.41S WCI  28
SALIDA         CLOUDY    52  41  64 W3        30.20R
SUNLIGHT       CLOUDY    37  34  87 NE5       30.27R
WILKERSON PASS FLURRIES  34  32  93 SE5       30.32R WCI  30
$$

COZ069>075-040400-
...SAN LUIS VALLEY/SANGRE DE CRISTO MOUNTAINS...

CITY           SKY/WX    TMP DP  RH WIND       PRES   REMARKS
ALAMOSA        CLOUDY    48  40  73 SW10      30.12R
LA VETA PASS   CLOUDY    39  32  75 MISG      30.22R
SAGUACHE       PTCLDY    46  36  66 E7        30.15R
$$

COZ035-036-038>040-040400-
...NORTHERN COLORADO FRONT RANGE...

CITY           SKY/WX    TMP DP  RH WIND       PRES   REMARKS
DENVER INTL AP LGT RAIN  53  45  74 SE10      30.06S
DMNS CITY PARK   N/A     54  42  65 W2        30.07S
AURORA         MOCLDY    52  45  79 E8        30.08S
FRONT RANGE AP MOCLDY    54  48  82 E7        30.08R
ERIE MUNI ARPT CLOUDY    57  46  66 S6        30.07S
BOULDER MUN AP CLOUDY    57  45  62 E3        30.07R
CENTENNIAL     MOCLDY    51  44  77 N6        30.08R
BROOMFIELD     MOCLDY    55  45  67 E7        30.09S
FORT COLLINS   MOCLDY    54  43  66 CALM      30.09R
LONGMONT       MOCLDY    56  46  69 CALM      30.09R
$$

COZ041-046-047-076>085-087-088-040400-
...PIKES PEAK/PALMER DIVIDE AND SOUTHERN FOOTHILLS...

CITY           SKY/WX    TMP DP  RH WIND       PRES   REMARKS
COLO. SPRINGS  MOCLDY    52  39  61 N17       30.08R
A. F. ACADEMY  MOCLDY    49  42  76 N9        30.10R
ELLICOTT         N/A      1   1 100 NE20G26   30.07R WCI -20
FALCON         MOCLDY    48  40  73 N13G23    30.12R
FORT CARSON    MOCLDY    55  40  58 N17       30.05R
LIMON          LGT RAIN  53  44  71 N17       30.03R
MONUMENT HILL  MOCLDY    43  41  93 NE9       30.12R
TRINIDAD       MOCLDY    56  39  53 W8        30.01R
$$

COZ042>045-048>051-090-091-040400-
...NORTHEAST COLORADO...

CITY           SKY/WX    TMP DP  RH WIND       PRES   REMARKS
GREELEY ARPT   MOCLDY    52  41  66 S6        30.06R
AKRON          CLOUDY    60  44  55 W9        30.05R
BURLINGTON     CLOUDY    68  41  37 NW13G21   29.99R THUNDER
WRAY           MOCLDY    66  41  40 N12       29.96R
STERLING       LGT RAIN  61  48  63 CALM      30.02R
HOLYOKE        NOT AVBL
FORT MORGAN    CLOUDY    56 -21   4 SE5       30.04S
$$

COZ086-089-092>099-040400-
...SOUTHEAST COLORADO...

CITY           SKY/WX    TMP DP  RH WIND       PRES   REMARKS
PUEBLO         CLOUDY    64  41  42 N24G30    29.99R
LA JUNTA       MOCLDY    64  47  53 NE12      29.92R
LAMAR          CLOUDY    66  46  48 NE12      29.89R
SPRINGFIELD      N/A     64  44  48 S8        29.94R
$$


USA.gov is the U.S. government's official web portal to all federal, state and local government web resources and services.